Overview Statistics Trail Chart Weather Telemetry Raw packets
 

This is the latest recevied weather packets stored in our database for station/object K0FJ-1. If no packets are shown the sender has not sent any weather packets the latest 10 day(s).

<< 69 70 71 72 73 74 75 >>
Time Temp. Humidity Pressure Rain* Wind** Luminosity Snow
1788202803 32.78° C 43% 1017.7 hPa 0 mm - - -
1788202503 32.78° C 45% 1017.6 hPa 0 mm - - -
1788202203 32.78° C 43% 1017.7 hPa 0 mm - - -
1788201903 32.78° C 48% 1017.8 hPa 0 mm - - -
1788201603 32.78° C 46% 1017.8 hPa 0 mm - - -
1788201311 32.22° C 50% 1017.8 hPa 0 mm - - -
1788201003 32.22° C 45% 1018 hPa 0 mm - - -
1788200703 32.22° C 47% 1017.9 hPa 0 mm - - -
1788200403 31.67° C 49% 1017.9 hPa 0 mm - - -
1788200103 31.11° C 49% 1018 hPa 0 mm - - -
1788199803 31.11° C 50% 1018 hPa 0 mm - - -
1788199503 31.11° C 49% 1018.1 hPa 0 mm - - -
1788199203 31.11° C 48% 1018.1 hPa 0 mm - - -
1788198903 31.11° C 49% 1018.1 hPa 0 mm - - -
1788198603 31.11° C 55% 1018.1 hPa 0 mm - - -
1788198303 31.11° C 50% 1018.2 hPa 0 mm - - -
1788198003 31.11° C 53% 1018.2 hPa 0 mm - - -
1788197703 30.56° C 55% 1018.2 hPa 0 mm - - -
1788197403 30.56° C 53% 1018.2 hPa 0 mm - - -
1788197103 30° C 53% 1018.2 hPa 0 mm - - -
1788196803 30.56° C 51% 1018.2 hPa 0 mm - - -
1788196503 30.56° C 50% 1018.3 hPa 0 mm - - -
1788196203 30.56° C 51% 1018.3 hPa 0 mm - - -
1788195903 30° C 51% 1018.3 hPa 0 mm - - -
1788195603 29.44° C 53% 1018.3 hPa 0 mm - - -

* Rain latest hour (hover to see other rain measurements)
** Current wind speed in m/s (hover to see current wind gust speed)